Location: Wald
(31.7579°N, 86.6655°W)
Time: 20:58:36
(UTC+00:00)

Okean 2 - Pass Details

Date: 14 July 2020
Orbit: 559 x 578 km, 82.5° (Epoch: 13 August)

Event Time Altitude Azimuth Distance (km) Brightness Sun altitude
Rises 09:00:25 0° 1° (N) 2,751 7.6 -20.3°
Reaches altitude 10° 09:02:40 10° 7° (N) 1,850 6.7 -19.9°
Maximum altitude 09:06:35 46° 82° (E) 752 4.3 -19.3°
Drops below altitude 10° 09:10:29 10° 156° (SSE) 1,838 5.8 -18.7°
Enters shadow 09:10:46 - 157° (SSE) 1,949 5.9 -18.6°
